Theta_e
346 347 348 344 348 345 348 348 347 347 347 345 346 346 345 345 347 347 344 343 341 341 343 341 340 340 339 336 335 336 336 337 337 336 335 335 336 336 338 339 340 342 338 332 335 338 340 338 336
344 348 350 341 344 349 347 346 347 346 344 343 343 342 342 344 345 343 345 340 338 338 340 341 341 341 341 339 338 338 338 336 336 338 338 339 339 340 341 340 341 342 332 330 336 335 338 333 332
349 345 343 343 344 353 350 347 346 345 343 342 343 343 342 345 343 343 340 339 338 339 339 340 341 342 340 340 341 341 340 341 339 337 337 339 340 341 341 342 342 333 338 337 341 340 337 333 337
342 341 341 344 347 346 348 347 345 344 343 342 343 345 344 344 339 340 338 339 340 341 341 340 341 343 342 340 341 341 344 336 336 336 338 338 335 339 342 342 332 338 340 338 336 335 330 337 342
338 338 340 343 346 344 343 345 345 344 344 343 342 343 344 344 344 343 336 336 336 339 341 341 341 340 340 343 344 342 339 336 339 340 339 339 340 337 338 339 337 338 330 331 330 328 335 340 341
338 339 342 344 346 343 342 344 344 344 343 342 343 343 343 345 343 344 344 342 341 339 339 341 341 342 342 342 343 340 336 337 336 339 340 340 341 339 334 330 331 331 333 334 333 333 329 334 340
339 340 343 345 347 346 346 343 343 342 342 343 341 342 343 344 345 345 344 343 343 342 341 342 343 343 344 343 343 335 336 336 337 339 338 341 339 336 339 340 336 332 336 335 335 334 331 330 338
340 339 345 345 347 346 345 343 342 342 342 341 342 342 343 344 344 344 344 344 342 341 340 341 342 343 343 340 339 338 338 335 337 338 336 339 340 338 336 335 334 335 336 337 337 337 333 335 341
344 339 347 345 347 345 344 344 342 341 340 342 342 342 343 343 344 344 343 343 342 340 340 341 341 341 342 340 337 336 335 335 339 336 338 337 337 339 339 337 335 336 337 337 335 334 335 339 342
339 341 345 344 344 344 343 345 343 340 342 342 342 342 342 342 342 341 340 338 339 339 339 339 339 340 340 339 339 336 335 337 338 338 337 335 336 336 336 336 335 337 334 333 333 332 334 335 339
346 345 346 345 344 342 343 345 345 340 343 340 342 342 342 341 340 337 336 336 335 336 337 337 338 339 339 338 338 336 337 338 339 332 332 334 334 334 333 334 335 335 334 337 339 344 343 344 340
347 346 345 346 345 345 345 344 343 341 342 337 338 340 341 341 338 336 336 335 333 334 337 338 338 337 338 337 338 340 339 338 336 339 338 336 330 329 328 332 335 334 338 343 344 344 342 343 344
347 347 345 344 345 344 344 345 345 341 341 337 338 340 339 338 337 337 337 334 335 338 338 337 337 337 337 337 339 339 339 337 337 343 340 337 338 339 334 332 333 335 343 342 344 345 345 343 341
344 345 345 345 344 344 344 344 344 343 341 339 339 339 339 339 338 338 338 333 336 338 338 337 336 338 338 337 340 336 338 340 343 342 340 341 341 341 340 337 337 342 342 342 343 345 344 344 343
344 346 344 343 342 345 341 345 342 342 340 340 341 340 339 339 339 338 339 332 336 339 338 337 336 338 337 338 337 339 341 341 342 341 342 341 340 340 338 340 339 340 342 343 344 343 344 343 341
342 343 345 344 340 342 342 347 341 342 341 342 341 341 340 339 339 339 339 335 334 336 336 335 336 337 337 337 336 338 338 340 341 342 340 341 340 339 340 340 338 344 344 346 345 341 344 345 345
340 344 344 346 342 342 344 342 341 341 341 341 342 342 341 340 339 339 340 340 333 332 334 335 335 335 336 338 340 336 333 341 341 338 339 340 340 339 339 341 341 342 345 345 346 345 344 348 346
339 343 342 346 344 345 346 345 340 340 341 341 341 341 342 341 341 340 340 340 340 335 333 333 333 337 339 340 341 341 341 341 339 340 340 340 339 336 341 344 340 343 346 346 343 347 347 344 346
339 341 343 343 344 346 345 345 341 340 340 339 341 342 342 341 341 340 340 340 341 340 338 337 334 338 340 340 340 341 342 342 342 342 341 337 338 339 340 342 341 341 342 345 345 344 344 341 347
339 342 343 345 345 344 345 346 343 341 340 339 340 340 341 341 341 340 340 340 341 341 340 339 336 338 339 338 339 342 342 342 341 342 342 340 341 340 344 342 344 342 341 339 342 343 342 339 346
338 341 344 345 346 343 343 342 344 343 341 339 339 341 340 341 341 341 340 340 341 341 341 340 336 338 338 339 338 340 340 341 342 343 343 343 343 342 340 343 342 342 341 341 338 342 343 339 344
337 336 342 347 345 345 341 343 338 340 342 341 339 340 341 341 341 340 340 340 340 340 341 341 340 339 340 340 338 338 339 339 343 342 341 344 343 344 343 343 344 340 338 342 336 341 345 344 344
333 337 345 344 344 342 344 344 339 337 342 342 341 340 340 341 341 341 340 340 340 341 341 341 342 340 341 341 339 337 339 339 342 342 342 343 343 343 343 344 345 341 339 340 339 342 344 345 341
338 341 339 336 337 342 338 342 340 339 339 339 340 342 341 341 341 341 341 342 341 341 341 341 341 342 341 342 341 340 341 339 341 341 341 343 341 343 344 344 345 345 345 341 341 338 342 346 343
338 335 341 344 342 342 338 343 339 337 337 336 337 342 342 341 341 341 342 342 342 341 341 341 341 342 341 341 341 341 340 340 339 340 340 341 342 342 342 343 344 346 344 345 345 337 343 345 343
336 326 338 338 341 338 341 344 339 337 338 337 337 337 342 341 341 341 341 342 342 340 340 342 343 342 342 342 341 341 341 342 340 340 342 342 342 343 342 344 344 346 344 344 345 343 344 345 344
323 330 322 327 326 333 336 335 333 338 337 337 337 338 341 342 341 341 341 342 342 341 341 343 343 342 342 343 343 342 342 342 342 339 341 342 342 342 344 344 341 345 345 341 341 342 346 344 344
322 321 325 322 332 335 335 337 337 338 340 338 339 340 341 341 341 341 341 342 342 342 342 343 343 343 343 344 343 343 343 344 344 342 339 341 340 340 341 342 344 343 344 346 343 339 342 342 342
323 323 319 320 323 328 332 332 330 334 338 338 336 339 341 342 343 343 342 341 342 342 342 342 342 343 343 344 343 343 342 344 346 345 341 339 340 340 339 341 342 344 345 345 345 346 344 340 345
320 320 319 321 324 327 327 332 329 332 332 338 338 339 339 338 341 342 342 343 342 342 341 341 341 343 343 343 343 342 343 345 344 345 344 343 341 344 342 340 343 343 345 345 346 346 346 344 343
Wind_Speed
3 4 1 1 2 2 2 4 1 3 3 2 6 2 7 4 1 2 11 19 20 19 19 18 16 15 15 15 15 14 14 14 14 13 11 11 11 10 9 9 10 11 9 9 10 10 10 10 9
1 2 3 2 3 2 4 3 2 2 10 17 12 8 5 2 1 6 21 23 18 18 17 17 16 14 14 15 14 13 12 11 12 12 10 9 10 9 10 11 11 10 8 11 10 10 10 10 10
3 2 0 3 2 2 3 2 6 9 10 4 6 8 3 3 4 22 15 23 19 17 16 14 14 14 15 16 15 14 11 11 11 12 12 11 10 9 11 11 10 11 11 11 10 9 10 11 11
2 2 3 4 2 2 3 5 12 9 5 5 11 6 5 2 16 10 21 20 17 15 14 14 14 14 14 14 13 13 11 11 10 12 12 11 9 10 11 12 12 11 10 10 10 9 10 10 9
3 4 4 2 2 3 3 6 11 4 3 3 2 4 4 8 7 13 19 17 15 13 13 12 12 12 13 12 12 12 11 10 11 13 12 11 11 11 11 11 12 11 11 11 10 9 10 9 7
3 2 3 1 3 4 3 6 3 2 3 6 6 5 2 7 12 17 16 14 12 12 14 13 14 10 10 13 13 13 12 12 13 13 12 12 11 11 11 12 12 12 11 10 8 7 8 8 6
4 2 1 3 3 4 3 7 3 2 4 2 9 4 5 12 16 15 14 14 11 11 11 13 14 15 14 11 12 14 14 13 13 12 13 12 12 13 12 11 11 10 10 9 8 6 7 8 8
3 3 2 1 2 3 6 4 8 5 3 10 2 5 6 17 15 15 13 11 9 10 11 9 9 9 11 11 12 14 14 13 12 14 13 11 13 12 11 11 10 9 9 9 7 6 7 8 8
2 3 2 3 4 2 13 4 4 5 10 1 0 8 12 20 18 15 13 12 10 10 11 11 10 9 9 11 13 15 20 17 12 13 12 11 12 10 12 11 10 9 9 7 6 6 8 8 6
4 1 3 2 6 3 5 6 1 5 3 2 10 10 19 18 17 14 13 11 12 11 12 12 12 11 11 12 13 15 16 10 12 10 8 9 12 10 11 9 8 8 9 8 6 6 5 4 5
2 2 2 7 3 7 1 8 8 11 3 8 18 22 20 17 15 12 9 7 5 8 11 13 11 11 11 12 14 15 15 14 13 9 10 11 12 11 9 8 8 9 10 7 4 3 4 1 2
1 2 3 5 2 3 0 8 4 15 2 9 16 20 21 18 16 12 8 5 6 9 13 13 14 12 12 14 13 14 15 15 11 11 10 10 10 8 9 8 9 9 8 6 2 1 2 5 6
0 2 4 7 7 7 3 6 3 11 2 13 20 20 19 18 15 12 7 2 4 12 17 15 14 13 14 14 14 16 15 15 13 11 10 10 9 8 9 9 9 9 6 4 3 1 3 4 4
1 4 4 5 2 7 7 9 6 5 11 18 21 20 19 19 16 14 11 6 7 15 18 17 15 15 15 14 16 15 15 14 13 10 10 7 6 5 7 11 10 5 3 3 0 3 3 5 8
8 3 2 3 5 5 11 6 2 12 21 22 21 20 19 19 17 15 10 9 10 17 19 19 18 16 15 17 14 12 12 14 11 11 9 7 5 4 4 6 5 4 5 1 2 4 5 4 7
1 2 0 2 4 4 5 4 2 15 20 20 21 21 20 20 18 13 12 11 13 18 20 21 19 18 17 19 16 15 10 11 12 10 8 7 4 6 5 5 4 7 3 1 0 4 3 6 7
2 2 2 2 13 6 8 4 9 16 20 19 21 22 22 22 20 15 14 14 14 15 19 20 18 18 18 16 13 13 11 11 12 9 8 6 4 6 6 6 6 5 2 1 1 3 5 8 8
3 3 2 3 6 7 6 10 5 15 24 22 25 25 24 24 24 17 17 17 15 15 16 17 18 18 17 14 14 15 12 11 11 6 6 6 3 7 8 5 7 5 2 2 2 2 6 7 9
3 3 4 3 4 5 9 5 6 13 17 15 25 28 30 30 24 21 18 18 18 18 18 18 19 19 17 14 14 14 11 10 9 7 6 8 7 6 5 4 5 3 5 6 4 6 7 7 8
4 4 4 1 6 3 4 9 8 12 16 22 21 27 33 30 27 25 24 23 21 19 19 18 20 21 19 18 15 14 10 10 10 8 7 7 7 7 5 6 5 5 4 6 7 9 9 5 5
6 8 3 3 5 2 3 7 5 8 18 18 28 30 32 34 31 27 27 28 24 24 22 20 20 21 20 19 18 17 14 11 13 9 8 8 6 5 6 8 7 7 6 7 8 9 7 4 5
2 9 6 9 4 3 0 5 5 6 8 7 21 31 33 32 32 30 27 28 28 27 25 22 20 21 19 18 18 18 16 13 14 10 10 12 9 5 5 7 7 9 10 11 12 10 7 5 4
5 1 5 4 3 1 2 1 7 2 8 12 17 28 35 35 33 33 31 29 26 24 24 26 23 21 21 19 18 18 18 15 15 12 10 11 9 8 8 8 8 8 9 10 10 9 7 7 5
8 8 7 4 2 2 2 3 5 4 7 6 13 29 34 33 36 32 33 30 28 27 24 23 27 23 22 22 20 20 19 18 17 17 15 12 10 10 9 10 11 9 9 9 10 10 8 7 8
6 6 3 3 3 6 3 2 9 6 7 9 15 28 35 33 35 33 32 32 31 31 30 26 25 27 22 22 22 21 20 20 20 19 18 17 13 14 13 14 12 10 9 9 10 9 10 8 8
7 8 6 6 4 3 3 5 6 4 7 11 16 23 27 31 32 34 32 32 31 30 31 28 27 27 25 23 23 22 22 22 21 22 19 15 12 10 11 13 14 12 10 10 10 8 11 12 10
6 5 5 7 3 2 3 7 8 2 4 4 8 14 25 31 31 31 32 33 30 32 30 29 28 28 25 24 24 24 23 22 22 22 24 17 15 11 11 13 12 11 9 10 10 10 10 10 11
6 6 3 2 4 3 4 5 5 3 5 3 7 18 21 25 27 28 28 31 31 33 29 27 26 27 25 25 23 24 25 24 22 21 26 24 20 19 16 15 15 15 15 13 12 10 11 12 11
2 2 5 5 4 5 2 6 7 8 6 8 9 14 17 20 23 24 25 27 28 31 31 27 27 30 26 26 24 24 24 25 24 24 26 29 26 22 22 16 17 16 17 15 16 14 14 14 12
5 7 5 5 4 1 3 6 4 7 6 12 14 15 13 17 19 19 21 23 25 28 30 28 24 29 29 27 27 22 22 23 24 25 26 26 30 25 23 22 19 19 16 16 19 19 18 17 16
Wind_Direction
81 93 29 23 60 70 334 329 251 62 48 15 120 131 133 86 175 205 150 157 162 165 166 170 172 166 165 161 157 152 150 150 151 150 150 149 145 148 151 146 138 130 122 131 128 130 136 135 127
144 9 17 120 72 49 317 332 72 51 130 104 87 90 66 100 159 151 148 151 159 164 164 169 173 174 169 171 167 164 159 158 158 151 146 156 153 159 150 146 141 128 122 120 120 133 135 131 124
67 17 128 93 82 59 307 36 86 121 143 149 117 86 100 101 147 146 154 152 159 167 169 172 176 172 175 174 173 169 169 170 168 161 160 164 165 163 147 136 134 132 132 126 133 135 123 118 116
109 105 65 81 95 248 325 130 141 154 86 67 113 79 86 89 140 154 156 154 154 159 164 169 173 173 173 173 175 169 165 154 157 160 159 158 161 164 148 137 133 128 128 132 129 127 122 126 125
73 86 57 68 161 257 334 200 144 137 84 78 104 114 75 148 173 163 161 163 165 164 165 175 181 193 188 173 175 166 160 154 154 149 143 143 142 145 149 137 137 130 128 121 122 124 136 149 147
79 93 93 107 347 289 298 155 106 84 114 122 102 95 94 167 155 155 158 163 175 187 190 191 195 189 190 177 178 165 160 157 148 143 138 141 133 133 138 130 134 129 127 122 125 143 161 173 171
101 79 159 126 316 5 64 135 97 33 114 126 134 85 131 153 161 159 154 155 163 183 195 205 214 202 175 181 172 165 163 155 145 142 138 138 138 133 128 133 131 131 126 126 136 157 171 179 189
98 84 95 102 66 342 35 150 143 112 21 139 72 151 171 167 169 165 169 171 175 188 191 201 203 200 169 170 158 159 153 150 145 145 139 143 130 133 139 138 140 142 132 130 143 147 167 190 196
73 64 180 206 164 141 6 39 131 65 146 294 308 164 167 162 170 173 178 187 190 191 188 186 186 180 165 165 162 167 164 145 156 148 132 135 134 145 142 144 153 141 124 129 128 143 169 198 213
71 66 254 281 160 123 338 3 22 112 185 47 105 143 156 159 173 180 183 192 195 197 191 182 171 172 167 158 157 162 160 155 154 148 142 153 147 147 152 150 146 131 133 135 133 124 164 204 222
153 196 333 307 174 154 208 330 344 144 225 210 161 160 164 167 174 178 185 205 225 201 194 186 181 165 152 145 150 155 162 164 156 155 151 143 144 162 151 148 146 142 139 128 102 120 213 209 271
211 328 340 314 212 113 266 327 147 167 263 204 172 165 167 177 183 181 188 221 221 202 183 175 167 161 154 149 156 165 167 162 161 147 144 140 153 153 148 151 154 152 139 121 90 55 312 337 331
244 255 53 64 111 60 357 347 317 208 334 166 165 172 175 179 185 183 185 204 193 171 170 158 157 155 156 158 161 157 162 162 157 155 146 144 136 130 146 152 160 148 136 124 115 348 331 333 342
6 107 82 31 18 59 36 316 316 184 208 169 175 179 189 191 189 189 186 150 146 161 158 157 156 155 162 164 159 157 160 161 154 155 151 143 130 136 144 156 166 167 161 136 115 319 350 330 334
141 78 33 35 17 30 22 331 318 174 176 175 185 188 197 203 199 198 184 152 129 153 160 165 161 156 156 154 159 152 158 161 165 159 156 146 139 154 158 171 188 183 154 138 344 305 329 2 11
233 122 71 226 152 137 45 259 177 171 168 180 194 199 207 210 209 206 201 170 146 145 153 159 163 155 154 162 166 171 177 176 180 173 162 163 149 158 150 202 200 156 150 101 249 352 43 6 4
9 269 247 176 193 142 193 244 239 186 183 190 206 208 215 221 219 214 211 193 171 156 159 163 167 166 171 173 162 178 194 198 193 187 178 179 141 192 165 166 167 168 166 98 124 32 3 8 349
243 222 258 221 211 211 183 259 262 192 190 197 212 219 219 227 224 215 212 208 194 187 179 174 169 166 172 179 176 180 193 193 206 202 202 192 147 151 144 155 177 186 188 211 229 327 337 348 340
149 188 207 220 191 163 217 244 225 201 200 207 214 213 222 228 227 224 218 214 208 207 202 195 188 181 186 190 189 189 186 193 198 194 204 193 178 175 175 176 204 212 224 257 293 313 321 324 337
205 206 218 146 144 197 219 246 219 222 224 223 222 213 222 226 226 222 222 220 213 208 207 206 199 194 194 199 203 198 200 188 197 204 191 180 175 183 187 213 217 231 265 281 286 300 304 295 319
225 219 174 173 121 178 316 281 223 222 228 233 222 223 224 226 223 220 218 220 212 212 206 205 200 197 199 207 206 208 215 228 206 201 210 202 197 203 221 238 252 263 278 289 297 291 301 270 289
287 231 198 142 116 218 297 279 275 217 213 201 214 215 222 225 224 221 217 217 215 215 214 212 208 210 207 213 209 214 218 229 210 215 224 217 217 234 259 250 266 280 267 281 292 283 294 277 269
228 311 114 85 90 17 204 83 273 133 234 219 214 218 221 227 221 218 219 218 223 221 224 220 217 218 216 217 216 215 225 222 222 224 221 214 235 254 277 263 276 284 262 273 284 270 284 270 264
134 71 52 59 87 338 244 166 277 206 219 216 208 216 221 222 218 222 223 222 225 223 228 228 219 219 219 217 219 221 227 228 229 234 237 234 237 256 264 262 272 279 279 268 282 261 269 265 262
84 71 25 0 358 229 321 153 247 253 230 219 202 209 215 216 215 218 221 220 223 227 225 226 223 219 220 220 218 226 229 235 237 242 240 243 241 257 258 261 269 283 267 268 295 254 247 258 265
179 152 153 198 208 255 37 241 256 217 290 266 234 224 208 210 215 216 221 221 223 225 223 229 227 218 223 226 224 225 233 240 242 236 237 236 237 255 255 257 262 264 268 264 282 254 250 253 261
197 194 187 105 349 81 236 287 296 334 19 96 168 187 196 210 209 219 224 223 227 228 229 230 227 223 230 234 234 233 235 241 248 240 240 246 240 239 245 259 261 258 263 269 274 258 258 253 255
161 159 95 342 146 233 284 282 244 292 243 220 168 178 193 208 215 219 225 225 229 230 238 232 233 232 237 238 237 240 244 245 252 255 246 248 248 244 244 254 252 260 261 265 269 266 256 252 253
128 213 54 114 123 162 187 262 212 224 210 200 205 194 192 201 212 217 224 229 233 232 232 230 234 231 237 234 234 244 248 243 245 251 251 251 253 249 246 253 245 251 265 249 257 264 259 250 250
185 198 146 126 220 145 150 270 246 246 204 206 207 208 213 211 212 223 234 234 228 230 226 225 227 231 235 242 246 251 243 248 244 246 253 253 252 251 250 247 248 243 258 250 259 256 256 255 254